Tracking 19720 objects as of 26-Jun-2019
HD Live streaming from Space Station
objects crossing your sky now

COSMOS 2275 (GLONASS)

Track COSMOS 2275 (GLONASS) now!
COSMOS 2275 (GLONASS) is classified as:


NORAD ID: 23045
Int'l Code: 1994-021C
Perigee: 19,070.1 km
Apogee: 19,203.9 km
Inclination: 64.7 °
Period: 675.7 minutes
Semi major axis: 25508 km
RCS: 3.4477 m2 (large)
Launch date: April 11, 1994
Source: Commonwealth of Independent States (former USSR) (CIS)
Launch site: TYURATAM MISSILE AND SPACE COMPLEX (TTMTR)
aabbcc
Your satellite tracking list
Your tracking list is empty




NASA's NSSDC Master Catalog

Two Line Element Set (TLE):
1 23045U 94021C   19175.30801576 -.00000060 +00000-0 +00000-0 0  9990
2 23045 064.7027 029.8266 0026233 038.7842 282.2483 02.13102129195884
Source of the keplerian elements: AFSPC